Погода в Летней Золотице

Россия / Архангельская область     64°57′04″N   36°49′52″E
темп.,
°C
ветер,
м/с
пор.,
м/с
влажн.,
%
обл.,
%
осадки,
мм/ч
давл.,
гПа
погр.,
м
5 августа, чт
чт500:00+9з91393100 1.4 1007896
03:00+10з81290100 2.9 1010789
06:00+11з71190100 0.6 1011624
09:00+11зсз5884100 0.6 1014529
12:00+12зсз4673100 0.0 1015490
15:00+13з3563100 0.0 1017525
18:00+13зсз2262100 0.0 1018368
21:00+11ююв2270100 0.0 101811
6 августа, пт
пт600:00+10ююв3372100 0.0 101932
03:00+10ю3372100 0.0 102038
06:00+11ю2270100 0.0 102148
09:00+15ю125724 0.0 1021345
12:00+16сз225736 0.0 10221096
15:00+14с346452 0.0 1022305
18:00+16всв34532 0.0 1021913
21:00+12вюв46695 0.0 102298
7 августа, сб
сб700:00+11вюв377475 0.0 1023108
03:00+11вюв377724 0.0 102397
06:00+12вюв35722 0.0 1024103
09:00+16вюв34542 0.0 1024648
12:00+18в56500 0.0 10231092
15:00+18в67512 0.0 10221033
18:00+17в69580 0.0 1022504
21:00+13в511700 0.0 1022198
8 августа, вс
вс800:00+12вюв411714 0.0 1022191
03:00+12вюв5116688 0.0 1023219
06:00+13в61368100 0.0 1022347
09:00+15в61158100 0.0 1022530
12:00+17в7950100 0.0 1021726
15:00+17в61054100 0.0 1021592
18:00+18в61050100 0.0 1020899
21:00+15вюв4860100 0.0 1020280
9 августа, пн
пн900:00+13вюв3971100 0.0 1020310
03:00+13вюв51181100 0.4 1020441
06:00+13вюв51183100 0.1 1019453
09:00+12вюв51188100 0.6 1019405
12:00+14вюв697999 0.1 1019389
15:00+18вюв576774 0.1 1019617
18:00+15вюв4976100 0.0 1019378
21:00+15вюв496899 0.0 1019336